[[{"header":{"parameterUnit":"m.s-1","parameterCategory":1,"la1":30.2991,"la2":30.254,"lo1":-89.0895,"lo2":-89.0444,"dy":0.0017,"dx":0.0017,"nx":28,"ny":28,"refTime":"2023-06-18T21:00:00:Z","depth":0,"parameterNumber":2,"parameterNumberName":"U-component_of_WINDS"},"data":[0,0,0,0,0,0,0,0,0,0,0,0,0,0,0,0,0,0,0,0,0,0,0,0,0,0,0,0,0,0,0,0,0,0,0,0,0,0,0,0,0,0,0,0,0,0,0,0,0,0,0,0,0,0,0,0,0,0,3.9718,3.9718,0,3.9715,3.9714,3.9714,3.965,3.9648,3.9647,3.9645,3.9641,3.9642,3.9644,0,0,0,0,0,0,0,0,0,0,0,0,0,3.9667,3.9669,3.9718,3.9718,3.9718,3.9715,3.9714,3.9714,3.965,3.9648,3.9646,3.9644,3.9641,3.9642,3.9644,0,0,0,0,0,0,0,0,0,0,0,0,0,3.9679,3.9669,3.9718,3.9686,3.9683,3.9715,3.9714,3.9714,3.9651,3.9648,3.9646,3.9643,3.964,3.9642,3.9644,3.9707,0,0,3.9651,3.9652,0,0,0,0,0,0,0,0,3.9679,3.9681,3.969,3.9688,3.9685,3.968,3.9695,3.9712,3.9651,3.9663,3.9645,3.9642,3.9656,3.9657,3.9661,3.9707,3.9707,3.9651,3.9652,3.9653,3.9654,0,0,0,0,0,0,0,3.9678,3.9681,3.9717,3.9691,3.9687,3.967,3.9669,3.9698,3.9673,3.9662,3.9657,3.9657,3.9654,3.966,3.9661,3.9706,3.9651,3.9653,3.9654,3.9655,3.9799,3.9801,0,0,0,0,0,0,3.9682,3.9681,3.9717,3.9717,3.9675,3.9673,3.9672,3.9684,3.9673,3.9669,3.966,3.9654,3.9657,3.9658,3.9661,3.973,3.9653,3.9655,3.9656,3.9796,3.98,3.9802,0,0,0,0,0,0,3.9681,3.9686,3.9717,3.9697,3.97,3.9677,3.9691,3.9685,3.9691,3.9671,3.9666,3.967,3.9655,3.9658,3.9695,3.9729,3.9656,3.9658,3.9793,3.9797,3.9801,3.9872,0,0,0,0,0,0,3.968,3.9686,3.971,3.9698,3.9701,3.9752,3.9693,3.9687,3.9695,3.9688,3.968,3.9676,3.9653,3.9692,3.9697,3.9731,3.966,3.979,3.9795,3.98,3.9866,3.9877,3.9887,0,0,0,0,0,3.9678,3.9731,3.9711,3.9716,3.9731,3.9755,3.9756,3.9729,3.9698,3.9721,3.9708,3.9676,3.9725,3.9697,3.9702,3.9736,3.9788,3.9794,3.9799,3.9861,3.9875,3.9887,0,0,0,0,0,0,3.9747,3.9729,3.9707,3.9758,3.9758,3.9744,3.9772,3.9745,3.9755,3.9748,3.9714,3.9713,3.9755,3.975,3.9718,3.9795,3.9751,3.9758,3.9796,3.9809,3.9819,3.9818,3.9662,0,0,0,0,0,3.9769,3.9789,3.9772,3.9818,3.9819,3.9796,3.9805,3.9784,3.9783,3.9783,3.9773,3.9773,3.9788,3.9799,3.9812,3.9866,3.9861,3.9892,3.9902,3.9911,3.9917,3.9941,3.9954,3.9821,3.9821,3.9821,0,0,3.9813,3.9805,3.982,3.9832,3.983,3.985,3.9797,3.9822,3.9837,3.9787,3.9821,3.9814,3.9811,3.9856,3.9876,3.9853,3.9953,3.9918,3.9925,3.9926,3.9949,3.9961,3.9972,3.9825,3.9824,3.9824,0,0,3.9902,3.99,3.9936,3.9935,3.9932,3.9916,3.9925,3.9914,3.9907,3.994,3.9902,3.992,3.9947,3.9946,3.9949,4.0036,4.0006,4.0042,4.0095,4.012,4.013,4.0139,4.0167,4.0178,4.0048,4.0048,4.0048,0,3.9957,3.9988,3.9959,3.9985,3.999,3.9946,3.9981,3.9982,3.9984,3.9987,3.9963,3.9994,3.999,4.0032,4.0053,4.0058,4.0065,4.0041,4.0131,4.014,4.0148,4.0174,4.0185,4.0052,4.0052,4.0051,4.0051,0,4.0053,4.0075,4.0105,4.0106,4.0115,4.0146,4.0121,4.0133,4.0111,4.0097,4.013,4.0124,4.0133,4.0142,4.0122,4.0181,4.0166,4.0137,4.0092,4.0165,4.0189,4.0199,4.0058,4.0056,4.0055,4.0054,0,0,4.0186,4.017,4.0181,4.018,4.0172,4.0188,4.0217,4.0225,4.0235,4.0238,4.0259,4.0282,4.0254,4.0258,4.0237,4.0259,4.0324,4.0226,4.0225,4.0242,4.0385,4.0405,4.0417,4.0305,4.0307,4.0308,4.0384,0,4.027,4.0317,4.0291,4.0342,4.0359,4.0317,4.0341,4.0339,4.0327,4.0339,4.0326,4.0341,4.0305,4.0306,4.0326,4.0312,4.0352,4.0307,4.0322,4.0323,4.0321,4.043,4.0452,4.0524,4.0394,4.0395,4.0396,0,4.0375,4.038,4.0432,4.0418,4.0425,4.0447,4.0451,4.0465,4.046,4.045,4.0453,4.0426,4.0451,4.0408,4.0441,4.0411,4.0416,4.041,4.0412,4.041,4.0362,4.0428,4.0546,4.0556,4.0412,4.041,4.0409,0,4.0462,4.0483,4.0515,4.0516,4.0502,4.0518,4.0513,4.0506,4.0512,4.0516,4.0519,4.0526,4.053,4.0535,4.051,4.0482,4.0546,4.0502,4.0535,4.0536,4.0549,4.0548,4.0666,4.0557,4.0557,4.0557,4.0557,0,4.0557,4.0589,4.0554,4.0574,4.0608,4.0577,4.0612,4.0603,4.0597,4.0613,4.0578,4.0594,4.0561,4.0573,4.0555,4.0583,4.0586,4.0576,4.057,4.0577,4.0578,4.0578,4.0571,4.056,4.0559,4.0559,4.0558,0,4.0659,4.0637,4.0669,4.0653,4.0649,4.0675,4.0661,4.0678,4.0663,4.0683,4.0687,4.0663,4.0675,4.0651,4.0661,4.0648,4.0687,4.0675,4.0688,4.0683,4.0717,4.0713,4.0838,4.0851,4.0737,4.0738,4.0739,0,4.072,4.0743,4.0729,4.0737,4.0733,4.0747,4.0752,4.0723,4.073,4.0725,4.0742,4.0752,4.0757,4.0779,4.0762,4.0769,4.0754,4.0798,4.0755,4.0761,4.0751,4.0748,4.0749,4.0805,4.0807,4.0808,4.0809,0,4.0828,4.0815,4.0824,4.0829,4.0836,4.0838,4.0838,4.0846,4.0815,4.0824,4.0836,4.084,4.0849,4.0858,4.086,4.0854,4.0825,4.0823,4.083,4.0836,4.0842,4.0836,4.0709,4.0819,4.0818,4.0817,4.0817,4.0817,4.0909,4.0926,4.0918,4.0928,4.0925,4.0925,4.0939,4.0925,4.0934,4.0939,4.0921,4.0936,4.0929,4.0929,4.0926,4.0936,4.0917,4.0929,4.0931,4.0934,4.0938,4.0843,4.0937,4.0937,4.0937,4.0936,4.0936,0,4.1012,4.1004,4.1014,4.1014,4.1021,4.0995,4.0992,4.1,4.1014,4.101,4.1015,4.1027,4.1035,4.1019,4.1024,4.1035,4.1022,4.1037,4.1035,4.1033,4.0957,4.0948,4.1048,4.1048,4.1048,4.1048,4.1048,4.1048,4.1067,4.1094,4.108,4.1104,4.1096,4.111,4.1111,4.111,4.1106,4.1121,4.1127,4.1116,4.1106,4.111,4.1116,4.111,4.1112,4.1132,4.1122,4.105,4.1039,4.1028,4.102,4.1133,4.1133,4.1197,4.1197,4.1198]},{"header":{"parameterUnit":"m.s-1","parameterCategory":1,"la1":30.2991,"la2":30.254,"lo1":-89.0895,"lo2":-89.0444,"dy":0.0017,"dx":0.0017,"nx":28,"ny":28,"refTime":"2023-06-18T21:00:00:Z","depth":0,"parameterNumber":3,"parameterNumberName":"V-component_of_WINDS"},"data":[0,0,0,0,0,0,0,0,0,0,0,0,0,0,0,0,0,0,0,0,0,0,0,0,0,0,0,0,0,0,0,0,0,0,0,0,0,0,0,0,0,0,0,0,0,0,0,0,0,0,0,0,0,0,0,0,0,0,7.1133,7.1135,0,7.129,7.1292,7.1294,7.1267,7.1264,7.1261,7.1259,7.1414,7.1421,7.1428,0,0,0,0,0,0,0,0,0,0,0,0,0,7.0803,7.081,7.1133,7.1135,7.1137,7.129,7.1292,7.1294,7.1267,7.1264,7.126,7.1257,7.1412,7.142,7.1428,0,0,0,0,0,0,0,0,0,0,0,0,0,7.0952,7.0812,7.1132,7.1142,7.1144,7.1289,7.1292,7.1295,7.1268,7.1264,7.126,7.1256,7.141,7.1419,7.1429,7.1573,0,0,7.146,7.1464,0,0,0,0,0,0,0,0,7.0944,7.0964,7.1138,7.1141,7.1144,7.1255,7.1233,7.1388,7.1269,7.1221,7.1259,7.1254,7.1364,7.1378,7.1416,7.1581,7.1587,7.1461,7.1467,7.1471,7.1474,0,0,0,0,0,0,0,7.0933,7.0957,7.1195,7.1141,7.1145,7.1136,7.1153,7.1262,7.1313,7.1225,7.1223,7.1242,7.1365,7.1407,7.142,7.159,7.1461,7.147,7.1476,7.148,7.1879,7.1883,0,0,0,0,0,0,7.0921,7.0949,7.119,7.1199,7.1032,7.1146,7.1164,7.1223,7.1312,7.1322,7.1246,7.124,7.1391,7.1408,7.1425,7.1599,7.1471,7.1481,7.1486,7.1874,7.188,7.1884,0,0,0,0,0,0,7.0914,7.0943,7.1183,7.1074,7.1104,7.1156,7.1222,7.1229,7.127,7.1328,7.1337,7.1279,7.1389,7.1411,7.1537,7.1604,7.1485,7.1494,7.1869,7.1876,7.1882,7.1948,0,0,0,0,0,0,7.0905,7.094,7.0997,7.1075,7.111,7.1295,7.1226,7.1235,7.1288,7.1283,7.1362,7.1371,7.1387,7.1522,7.1547,7.1615,7.1502,7.1863,7.1872,7.188,7.194,7.1956,7.197,0,0,0,0,0,7.0893,7.1008,7.1,7.1029,7.1182,7.1299,7.1318,7.1336,7.1294,7.135,7.1387,7.1368,7.1592,7.1535,7.1563,7.1635,7.1859,7.1869,7.1879,7.1933,7.1953,7.1969,0,0,0,0,0,0,7.0935,7.1019,7.1011,7.1155,7.122,7.1294,7.1366,7.1357,7.1434,7.1425,7.1443,7.1461,7.1588,7.1624,7.1559,7.1779,7.1719,7.1736,7.1751,7.177,7.1785,7.1773,7.1511,0,0,0,0,0,7.0961,7.1051,7.1118,7.1239,7.1273,7.1314,7.1365,7.1373,7.1441,7.1467,7.1514,7.1578,7.1663,7.1718,7.18,7.1945,7.1961,7.2008,7.2023,7.2035,7.2049,7.2127,7.2148,7.1918,7.1918,7.1918,0,0,7.1016,7.1073,7.1128,7.1249,7.1301,7.1391,7.1337,7.1435,7.1501,7.1482,7.1604,7.164,7.1713,7.1849,7.1911,7.1883,7.2116,7.2048,7.2058,7.2065,7.214,7.2161,7.2181,7.1925,7.1924,7.1923,0,0,7.1162,7.1215,7.1321,7.1374,7.1453,7.1479,7.1505,7.158,7.1604,7.1727,7.1714,7.1792,7.1938,7.1991,7.2036,7.2201,7.2186,7.2227,7.2305,7.2381,7.2399,7.2415,7.2473,7.2494,7.2241,7.2241,7.2241,0,7.122,7.1358,7.1376,7.1476,7.1529,7.1517,7.1623,7.1673,7.1774,7.1809,7.1777,7.196,7.2008,7.2155,7.2195,7.2233,7.2261,7.2218,7.2395,7.2412,7.2427,7.2482,7.2504,7.2245,7.2245,7.2244,7.2244,0,7.1424,7.1519,7.1595,7.1695,7.1756,7.1858,7.1891,7.195,7.1953,7.1983,7.2107,7.2164,7.2257,7.2292,7.2296,7.244,7.242,7.2391,7.2332,7.2453,7.2505,7.2527,7.2252,7.225,7.2249,7.2248,0,0,7.1601,7.171,7.1737,7.1782,7.1867,7.194,7.2041,7.2133,7.2183,7.2253,7.2337,7.2461,7.2435,7.2486,7.2495,7.2562,7.2688,7.2525,7.2527,7.2552,7.2849,7.2869,7.2894,7.2678,7.2682,7.2686,7.2842,0,7.1755,7.1935,7.1955,7.2115,7.2202,7.2192,7.228,7.2341,7.237,7.2447,7.2479,7.2566,7.2526,7.2557,7.2623,7.2659,7.2747,7.2648,7.2755,7.2758,7.2737,7.2921,7.2944,7.3089,7.2863,7.2866,7.2869,0,7.1958,7.2035,7.2205,7.2278,7.2315,7.2394,7.2479,7.2553,7.2621,7.2638,7.2696,7.2696,7.2798,7.2735,7.2875,7.2807,7.2852,7.2876,7.2882,7.2892,7.2821,7.2935,7.3135,7.3157,7.2901,7.2899,7.2896,0,7.2069,7.2215,7.2335,7.2373,7.2462,7.2517,7.2556,7.2621,7.2675,7.2748,7.2783,7.2867,7.2913,7.2977,7.2999,7.2951,7.3137,7.3076,7.3153,7.3152,7.3192,7.3189,7.3401,7.3222,7.3222,7.3221,7.3221,0,7.2238,7.2342,7.2386,7.246,7.2575,7.2596,7.2709,7.2745,7.2802,7.2881,7.2876,7.295,7.2975,7.3053,7.307,7.3182,7.3203,7.3218,7.3222,7.3219,7.3217,7.3248,7.3238,7.3227,7.3226,7.3225,7.3224,0,7.2381,7.2415,7.2546,7.2619,7.264,7.2721,7.2783,7.2853,7.2882,7.2982,7.3006,7.3051,7.3142,7.317,7.3279,7.3291,7.3422,7.3417,7.34,7.34,7.3474,7.3466,7.3713,7.3746,7.3546,7.3548,7.3549,0,7.2487,7.2567,7.2649,7.2703,7.2744,7.283,7.2885,7.2908,7.2965,7.3049,7.3108,7.3199,7.3272,7.3418,7.3458,7.3541,7.3537,7.3618,7.355,7.3544,7.3538,7.3532,7.354,7.3631,7.3633,7.3634,7.3636,0,7.267,7.2683,7.2763,7.285,7.2916,7.2985,7.3051,7.3095,7.3126,7.319,7.3284,7.3342,7.3454,7.3543,7.3627,7.3665,7.3656,7.3657,7.3679,7.3676,7.3663,7.367,7.3434,7.3651,7.365,7.3649,7.3648,7.3647,7.2797,7.2867,7.2936,7.3026,7.3078,7.314,7.3209,7.3247,7.3326,7.3421,7.3428,7.3529,7.3594,7.3707,7.3749,7.3827,7.3803,7.3835,7.3843,7.3851,7.3856,7.3651,7.3842,7.3842,7.3842,7.3841,7.3841,0,7.2979,7.3023,7.3105,7.3199,7.3269,7.3255,7.3328,7.3386,7.3476,7.3538,7.3611,7.3718,7.3804,7.3852,7.3937,7.3991,7.3988,7.4012,7.4008,7.4017,7.3873,7.3845,7.4013,7.4013,7.4013,7.4013,7.4012,7.4012,7.3082,7.32,7.3221,7.3364,7.3406,7.3507,7.3549,7.3605,7.3655,7.3775,7.3848,7.3879,7.3934,7.4024,7.4102,7.4113,7.4145,7.4171,7.418,7.4045,7.4027,7.401,7.3984,7.4178,7.4178,7.4317,7.4318,7.4319]}]]